Total_Precipitation_Accumulation
0.18 0.25 0.28 0.33 0.28 0.21 0.18 0.18 0.31 0.40 0.55 0.67 0.67 0.77 1.04 0.89 0.78 0.70 0.70 0.61 0.59 0.68 0.85 0.96 0.99 0.98 1.08 1.22 1.35 1.49 1.63 1.77 2.02 2.30 2.16 1.91 1.87 1.84 1.79 1.86 1.99 2.29 2.44 2.52
0.16 0.22 0.26 0.29 0.29 0.24 0.20 0.18 0.19 0.31 0.50 0.59 0.69 0.74 0.83 0.84 0.87 0.86 0.80 0.78 0.79 0.94 0.98 1.03 1.12 1.06 1.02 1.07 1.19 1.39 1.56 1.69 1.86 1.99 1.84 1.66 1.55 1.59 1.64 1.74 1.91 2.09 2.22 2.34
0.29 0.25 0.30 0.34 0.31 0.28 0.24 0.29 0.29 0.38 0.50 0.56 0.78 0.76 0.75 0.91 1.00 0.93 0.78 0.83 0.88 0.95 1.10 1.06 1.05 1.04 1.05 1.13 1.31 1.51 1.57 1.59 1.72 1.83 1.87 1.78 1.57 1.59 1.68 1.78 1.89 1.98 2.03 2.07
0.45 0.47 0.57 0.44 0.38 0.35 0.33 0.38 0.39 0.43 0.49 0.60 0.78 0.78 0.68 0.72 0.78 0.87 0.90 0.98 0.97 0.96 1.03 0.98 0.96 1.05 1.07 1.08 1.33 1.56 1.61 1.66 1.81 1.96 1.99 1.96 1.89 1.86 1.97 2.03 2.01 2.01 2.07 2.09
0.66 0.63 0.56 0.55 0.53 0.54 0.60 0.76 0.69 0.61 0.58 0.64 0.65 0.74 0.82 0.71 0.66 0.78 0.90 1.09 1.14 1.05 1.11 1.17 1.24 1.29 1.30 1.29 1.46 1.67 1.77 1.84 1.94 2.09 2.16 2.19 2.27 2.32 2.38 2.37 2.21 2.18 2.26 2.29
0.74 0.82 0.80 0.77 0.65 0.60 0.78 1.26 1.13 0.89 0.75 0.71 0.73 1.07 1.22 1.02 0.87 0.89 0.89 1.06 1.28 1.25 1.12 1.19 1.27 1.40 1.56 1.64 1.74 1.82 1.96 2.11 2.17 2.32 2.45 2.43 2.54 2.69 2.83 2.86 2.71 2.71 2.57 2.40
0.81 0.91 0.97 0.89 0.68 0.71 1.32 1.69 1.32 1.13 1.06 0.98 1.06 1.10 1.15 1.02 0.94 0.95 0.93 1.01 1.18 1.38 1.26 1.23 1.35 1.54 1.73 1.85 2.04 2.12 2.21 2.28 2.33 2.49 2.66 2.80 3.00 3.19 3.22 3.16 3.13 3.02 2.72 2.59
1.01 1.24 1.32 0.89 0.86 1.20 1.52 1.32 1.33 1.39 1.50 1.46 1.24 1.00 0.98 1.04 0.94 0.94 0.93 0.97 1.02 1.10 1.22 1.30 1.41 1.71 1.90 1.92 2.00 2.16 2.29 2.40 2.54 2.66 2.70 2.82 3.19 3.32 3.33 3.29 3.13 2.95 2.80 2.58
1.26 1.44 1.21 0.99 1.13 1.20 1.32 1.40 1.44 1.52 1.60 1.48 1.25 1.08 1.07 1.10 1.00 0.93 0.90 0.95 1.00 1.05 1.19 1.35 1.55 1.81 2.11 2.18 2.13 2.12 2.25 2.41 2.58 2.73 2.95 3.16 3.34 3.32 3.28 3.25 3.12 2.94 2.79 2.56
1.46 1.48 1.21 1.18 1.24 1.21 1.31 1.38 1.50 1.45 1.43 1.40 1.32 1.18 1.16 1.09 0.96 0.94 0.97 1.00 1.02 1.14 1.31 1.47 1.66 1.85 2.14 2.11 2.05 2.10 2.13 2.26 2.39 2.48 2.57 2.72 2.97 2.95 2.82 2.79 2.85 2.84 2.77 2.64
1.70 1.71 1.61 1.57 1.55 1.45 1.40 1.36 1.38 1.40 1.35 1.38 1.37 1.33 1.19 1.15 1.08 0.97 0.98 1.07 1.08 1.23 1.47 1.56 1.68 1.79 1.84 1.84 1.86 1.90 1.92 1.99 2.05 2.10 2.19 2.30 2.41 2.52 2.52 2.50 2.49 2.51 2.50 2.46
2.03 1.85 1.79 2.00 1.89 1.71 1.50 1.45 1.52 1.47 1.38 1.39 1.42 1.45 1.29 1.19 1.15 1.04 1.03 1.14 1.26 1.35 1.49 1.61 1.82 1.97 1.97 1.94 2.01 2.04 1.95 1.92 1.94 1.99 2.03 2.04 2.13 2.18 2.22 2.10 1.98 1.87 1.82 1.81
1.83 1.73 1.70 1.79 1.78 1.64 1.51 1.50 1.63 1.69 1.59 1.47 1.45 1.45 1.34 1.22 1.18 1.14 1.15 1.22 1.35 1.37 1.45 1.58 1.73 1.84 1.98 2.16 2.28 2.32 2.21 2.11 2.02 1.94 1.94 1.96 1.99 2.07 2.07 1.97 1.82 1.66 1.54 1.47
1.85 1.81 1.81 1.72 1.70 1.58 1.44 1.47 1.58 1.55 1.58 1.51 1.49 1.47 1.37 1.22 1.21 1.28 1.27 1.33 1.45 1.52 1.55 1.61 1.71 1.77 1.83 2.08 2.29 2.37 2.31 2.21 2.04 1.92 1.87 1.86 1.87 1.92 2.02 2.11 2.03 1.84 1.60 1.42
2.17 2.07 1.96 1.91 1.86 1.72 1.50 1.46 1.51 1.51 1.45 1.49 1.53 1.58 1.54 1.44 1.38 1.38 1.34 1.34 1.45 1.57 1.63 1.66 1.68 1.71 1.83 1.97 2.13 2.17 2.11 2.01 1.88 1.82 1.82 1.82 1.89 1.91 1.90 1.94 1.93 1.89 1.73 1.54
2.13 2.04 1.90 1.90 1.91 1.84 1.71 1.63 1.65 1.65 1.58 1.54 1.52 1.56 1.58 1.59 1.49 1.41 1.35 1.37 1.51 1.54 1.53 1.64 1.72 1.70 1.79 1.99 2.08 2.10 2.10 2.08 1.91 1.84 1.91 1.95 1.96 1.98 1.95 2.01 2.01 1.95 1.76 1.56
2.04 2.05 1.90 1.74 1.76 1.80 1.72 1.67 1.63 1.67 1.67 1.58 1.48 1.42 1.38 1.38 1.47 1.48 1.41 1.34 1.42 1.52 1.55 1.66 1.72 1.70 1.79 1.96 2.13 2.10 2.04 2.02 1.94 1.86 1.92 2.03 2.06 2.04 2.00 2.02 2.00 1.99 1.85 1.67
1.76 1.81 1.77 1.66 1.56 1.57 1.59 1.54 1.58 1.63 1.66 1.61 1.51 1.43 1.43 1.49 1.66 1.78 1.84 1.78 1.66 1.58 1.55 1.57 1.61 1.64 1.71 1.83 1.90 1.89 1.92 1.86 1.73 1.59 1.66 1.76 1.82 1.86 1.89 1.86 1.88 1.88 1.81 1.65
1.58 1.70 1.72 1.64 1.61 1.47 1.52 1.52 1.54 1.57 1.57 1.63 1.63 1.57 1.53 1.59 1.71 1.87 2.04 2.07 1.94 1.79 1.66 1.56 1.63 1.60 1.70 1.80 1.80 1.78 1.75 1.69 1.57 1.42 1.42 1.56 1.62 1.68 1.74 1.73 1.71 1.69 1.62 1.52
1.71 1.73 1.67 1.56 1.62 1.66 1.63 1.64 1.64 1.67 1.54 1.48 1.54 1.62 1.71 1.74 1.83 1.92 1.96 1.96 1.91 1.83 1.69 1.55 1.45 1.43 1.51 1.65 1.75 1.72 1.69 1.67 1.61 1.43 1.40 1.56 1.65 1.74 1.72 1.67 1.67 1.66 1.57 1.53
1.69 1.64 1.54 1.43 1.45 1.48 1.43 1.45 1.48 1.59 1.66 1.60 1.66 1.77 1.85 1.82 1.85 1.99 2.13 2.02 1.74 1.68 1.62 1.61 1.50 1.47 1.45 1.57 1.66 1.67 1.67 1.68 1.74 1.62 1.56 1.58 1.64 1.71 1.66 1.60 1.56 1.53 1.54 1.57
1.65 1.61 1.59 1.56 1.53 1.43 1.28 1.27 1.38 1.49 1.61 1.72 1.80 1.87 1.93 1.97 2.01 2.01 1.95 2.00 1.86 1.87 1.76 1.62 1.55 1.56 1.55 1.53 1.55 1.63 1.65 1.67 1.76 1.72 1.66 1.66 1.73 1.77 1.76 1.70 1.63 1.57 1.55 1.57
1.61 1.64 1.59 1.58 1.61 1.53 1.39 1.34 1.32 1.44 1.55 1.60 1.70 1.92 2.02 2.01 2.09 2.30 2.09 1.75 1.66 1.75 1.73 1.68 1.65 1.58 1.49 1.35 1.43 1.57 1.61 1.65 1.66 1.63 1.53 1.50 1.52 1.56 1.55 1.47 1.44 1.45 1.44 1.43
1.71 1.65 1.62 1.62 1.61 1.52 1.49 1.46 1.45 1.49 1.46 1.45 1.54 1.74 1.97 2.07 1.99 1.89 1.90 1.80 1.63 1.53 1.43 1.48 1.49 1.44 1.45 1.38 1.46 1.56 1.60 1.64 1.61 1.52 1.46 1.43 1.43 1.45 1.42 1.39 1.37 1.36 1.37 1.41
1.73 1.65 1.58 1.58 1.63 1.62 1.56 1.55 1.60 1.59 1.53 1.53 1.53 1.59 1.70 1.86 1.95 1.79 1.57 1.48 1.41 1.28 1.20 1.23 1.23 1.27 1.27 1.28 1.30 1.40 1.56 1.68 1.66 1.50 1.38 1.37 1.36 1.34 1.30 1.26 1.29 1.37 1.42 1.42
1.73 1.71 1.67 1.62 1.58 1.60 1.60 1.65 1.80 1.81 1.83 1.90 1.78 1.64 1.66 1.66 1.66 1.72 1.60 1.41 1.31 1.22 1.10 1.15 1.14 1.12 1.12 1.19 1.21 1.24 1.37 1.56 1.63 1.54 1.38 1.37 1.35 1.34 1.34 1.32 1.27 1.29 1.33 1.33
1.79 1.74 1.68 1.64 1.59 1.52 1.60 1.72 1.83 1.89 1.98 2.08 2.08 1.91 1.78 1.64 1.60 1.62 1.61 1.55 1.41 1.26 1.19 1.17 1.13 1.11 1.11 1.12 1.08 1.07 1.17 1.32 1.40 1.43 1.46 1.48 1.48 1.48 1.44 1.37 1.28 1.22 1.22 1.22